Meteo Giornale » Osservazioni meteo Stati Uniti (USA) » Harrisburg
ore: 22:56 - Osservazioni Meteo Harrisburg
Lat. 40° 11' N Lon. 76° 45' W Alt. 95 metri s.l.m.
24 °C
Coperto
Temp. 24 Ore
22 °C
27 °C
Sud-Est
9.3 Km/h
Dew point 22 °C
Umidità 88 %
Visibilità 10 Km
Il sole sorge alle ore 06:33
Il sole tramonta alle ore 19:40
| Data e Ora | Cielo e Fenomeni | T °C | DP °C | Um. % | Pres. hPa | Vis. km | Vento km/h | |
|---|---|---|---|---|---|---|---|---|
| Oggi h: 22:56 | Coperto | 24 | 22 | 88 | 1018 | 10 | SE 9.3 | |
| Oggi h: 21:56 | Molto Nuvoloso | 24 | 22 | 88 | 1018 | 10 | N 5.5 | |
| Oggi h: 20:56 | Pioggia | 24 | 22 | 88 | 1017 | 10 | N 0 | |
| Oggi h: 19:56 | Nuvoloso | 24 | 22 | 88 | 1017 | 10 | N 0 | |
| Oggi h: 18:56 | Nuvoloso | 26 | 22 | 78 | 1017 | 10 | N 5.5 | |
| Oggi h: 17:56 | Molto Nuvoloso | 26 | 21 | 73 | 1018 | 10 | SE 7.4 | |
| Oggi h: 16:56 | Sereno | 27 | 21 | 69 | 1018 | 10 | SE 9.3 | |
| Oggi h: 15:56 | Molto Nuvoloso | 26 | 20 | 69 | 1018 | 10 | SE 7.4 | |
| Oggi h: 14:56 | Coperto | 27 | 21 | 69 | 1019 | 10 | S/SE 9.3 | |
| Oggi h: 13:56 | Pioggia | 26 | 21 | 73 | 1019 | 10 | SE 7.4 | |
| Oggi h: 12:56 | Molto Nuvoloso | 26 | 20 | 69 | 1020 | 10 | SE 7.4 | |
| Oggi h: 11:56 | Molto Nuvoloso | 25 | 19 | 69 | 1020 | 10 | SE 9.3 | |
| Oggi h: 10:56 | Molto Nuvoloso | 24 | 19 | 73 | 1020 | 10 | SE 9.3 | |
| Oggi h: 09:56 | Molto Nuvoloso | 24 | 19 | 73 | 1020 | 10 | N 5.5 | |
| Oggi h: 08:56 | Molto Nuvoloso | 23 | 19 | 78 | 1020 | 10 | N 0 | |
| Oggi h: 07:56 | Coperto | 22 | 20 | 88 | 1020 | 10 | N 0 | |
| Oggi h: 06:56 | Molto Nuvoloso | 22 | 20 | 88 | 1019 | 10 | N 5.5 | |
| Oggi h: 05:56 | Coperto | 22 | 20 | 88 | 1019 | 10 | N 5.5 | |
| Oggi h: 04:56 | Nuvoloso | 22 | 20 | 88 | 1018 | 10 | N 5.5 | |
| Oggi h: 03:56 | Molto Nuvoloso | 22 | 20 | 88 | 1018 | 10 | N/NE 9.3 | |
| Oggi h: 02:56 | Coperto | 23 | 21 | 88 | 1018 | 10 | N 9.3 | |
| Oggi h: 01:56 | Molto Nuvoloso | 23 | 20 | 83 | 1019 | 10 | N/NO 9.3 | |
| Oggi h: 00:56 | Nuvoloso | 25 | 19 | 69 | 1019 | 10 | N 9.3 | |
| Ieri h: 23:56 | Coperto | 26 | 19 | 65 | 1019 | 10 | SO 9.3 | |



